Track FLOCK 4V 16 now! 10-day predictions FLOCK 4V 16 is classified as:
1 46527U 20061BD 21022.77423823 .00001381 00000-0 77642-4 0 9999 2 46527 97.4566 99.2179 0010393 96.5985 263.6431 15.14893621 17472